Time,TemperatureF,DewpointF,PressureIn,WindDirection,WindDirectionDegrees,WindSpeedMPH,WindSpeedGustMPH,Humidity,HourlyPrecipIn,Conditions,Clouds,dailyrainin,SoftwareType,DateUTC
2013-12-13 00:00:00,24.8,16.1,30.42,South,173,0.0,1.0,69,0.00,,,0.00,VWS V15.00,2013-12-13 05:00:00,
2013-12-13 00:01:00,24.8,15.8,30.43,South,173,0.0,0.0,68,0.00,,,0.00,VWS V15.00,2013-12-13 05:01:00,
2013-12-13 00:06:00,24.5,15.5,30.43,South,173,0.0,0.0,68,0.00,,,0.00,VWS V15.00,2013-12-13 05:06:00,
2013-12-13 00:11:00,24.4,15.7,30.43,South,173,0.0,0.0,69,0.00,,,0.00,VWS V15.00,2013-12-13 05:11:00,
2013-12-13 00:16:00,24.2,15.8,30.43,South,173,0.0,0.0,70,0.00,,,0.00,VWS V15.00,2013-12-13 05:16:00,
2013-12-13 00:21:00,24.0,15.3,30.43,South,173,0.0,0.0,69,0.00,,,0.00,VWS V15.00,2013-12-13 05:21:00,
2013-12-13 00:26:00,23.9,15.2,30.43,South,173,0.0,0.0,69,0.00,,,0.00,VWS V15.00,2013-12-13 05:26:00,
2013-12-13 00:30:00,23.8,15.1,30.43,South,173,0.0,0.0,69,0.00,,,0.00,VWS V15.00,2013-12-13 05:30:00,
2013-12-13 00:31:00,23.8,15.1,30.43,South,173,0.0,0.0,69,0.00,,,0.00,VWS V15.00,2013-12-13 05:31:00,
2013-12-13 00:36:00,23.7,15.0,30.43,South,173,0.0,0.0,69,0.00,,,0.00,VWS V15.00,2013-12-13 05:36:00,
2013-12-13 00:41:00,23.7,15.7,30.42,South,173,0.0,0.0,71,0.00,,,0.00,VWS V15.00,2013-12-13 05:41:00,
2013-12-13 00:46:00,23.6,15.3,30.42,South,173,0.0,0.0,70,0.00,,,0.00,VWS V15.00,2013-12-13 05:46:00,
2013-12-13 00:51:00,23.5,15.2,30.42,South,173,0.0,0.0,70,0.00,,,0.00,VWS V15.00,2013-12-13 05:51:00,
2013-12-13 00:56:00,23.4,15.1,30.42,South,173,0.0,0.0,70,0.00,,,0.00,VWS V15.00,2013-12-13 05:56:00,
2013-12-13 01:00:00,23.4,15.1,30.42,South,173,0.0,0.0,70,0.00,,,0.00,VWS V15.00,2013-12-13 06:00:00,
2013-12-13 01:01:00,23.3,15.0,30.41,South,173,0.0,0.0,70,0.00,,,0.00,VWS V15.00,2013-12-13 06:01:00,
2013-12-13 01:06:00,23.3,15.0,30.41,South,173,0.0,0.0,70,0.00,,,0.00,VWS V15.00,2013-12-13 06:06:00,
2013-12-13 01:11:00,23.3,15.0,30.42,South,173,0.0,0.0,70,0.00,,,0.00,VWS V15.00,2013-12-13 06:11:00,
2013-12-13 01:16:00,23.3,15.0,30.42,South,173,0.0,0.0,70,0.00,,,0.00,VWS V15.00,2013-12-13 06:16:00,
2013-12-13 01:21:00,23.3,15.0,30.42,South,173,0.0,0.0,70,0.00,,,0.00,VWS V15.00,2013-12-13 06:21:00,
2013-12-13 01:26:00,23.3,15.0,30.42,South,173,0.0,0.0,70,0.00,,,0.00,VWS V15.00,2013-12-13 06:26:00,
2013-12-13 01:30:00,23.3,15.0,30.41,South,173,0.0,0.0,70,0.00,,,0.00,VWS V15.00,2013-12-13 06:30:00,
2013-12-13 01:31:00,23.3,15.0,30.41,South,173,0.0,0.0,70,0.00,,,0.00,VWS V15.00,2013-12-13 06:31:00,
2013-12-13 01:36:00,23.3,15.0,30.41,South,173,0.0,0.0,70,0.00,,,0.00,VWS V15.00,2013-12-13 06:36:00,
2013-12-13 01:41:00,23.3,15.0,30.41,WSW,251,0.0,2.0,70,0.00,,,0.00,VWS V15.00,2013-12-13 06:41:00,
2013-12-13 01:46:00,23.3,15.0,30.41,WSW,251,0.0,2.0,70,0.00,,,0.00,VWS V15.00,2013-12-13 06:46:00,
2013-12-13 01:51:00,22.9,15.9,30.41,WSW,251,0.0,2.0,74,0.00,,,0.00,VWS V15.00,2013-12-13 06:51:00,
2013-12-13 01:56:00,22.8,15.8,30.42,WSW,251,0.0,2.0,74,0.00,,,0.00,VWS V15.00,2013-12-13 06:56:00,
2013-12-13 02:00:00,22.8,15.5,30.42,WSW,251,0.0,2.0,73,0.00,,,0.00,VWS V15.00,2013-12-13 07:00:00,
2013-12-13 02:01:00,22.7,15.4,30.42,WSW,251,0.0,0.0,73,0.00,,,0.00,VWS V15.00,2013-12-13 07:01:00,
2013-12-13 02:06:00,22.6,15.3,30.42,WSW,251,0.0,0.0,73,0.00,,,0.00,VWS V15.00,2013-12-13 07:06:00,
2013-12-13 02:11:00,22.5,15.5,30.43,WSW,251,0.0,1.0,74,0.00,,,0.00,VWS V15.00,2013-12-13 07:11:00,
2013-12-13 02:16:00,22.5,15.5,30.43,WSW,251,0.0,1.0,74,0.00,,,0.00,VWS V15.00,2013-12-13 07:16:00,
2013-12-13 02:21:00,22.5,15.5,30.43,WSW,251,0.0,1.0,74,0.00,,,0.00,VWS V15.00,2013-12-13 07:21:00,
2013-12-13 02:26:00,22.7,15.4,30.44,SW,228,0.0,4.0,73,0.00,,,0.00,VWS V15.00,2013-12-13 07:26:00,
2013-12-13 02:30:00,22.8,15.5,30.44,WNW,290,0.0,4.0,73,0.00,,,0.00,VWS V15.00,2013-12-13 07:30:00,
2013-12-13 02:31:00,23.0,15.3,30.43,WSW,250,2.0,3.0,72,0.00,,,0.00,VWS V15.00,2013-12-13 07:31:00,
2013-12-13 02:36:00,23.3,15.6,30.44,WSW,248,2.0,3.0,72,0.00,,,0.00,VWS V15.00,2013-12-13 07:36:00,
2013-12-13 02:41:00,23.4,15.7,30.43,WSW,248,1.0,3.0,72,0.00,,,0.00,VWS V15.00,2013-12-13 07:41:00,
2013-12-13 02:46:00,23.4,15.7,30.43,WSW,248,0.0,3.0,72,0.00,,,0.00,VWS V15.00,2013-12-13 07:46:00,
2013-12-13 02:51:00,23.5,15.8,30.43,SW,226,1.0,4.0,72,0.00,,,0.00,VWS V15.00,2013-12-13 07:51:00,
2013-12-13 02:56:00,23.5,15.8,30.43,SW,226,0.0,4.0,72,0.00,,,0.00,VWS V15.00,2013-12-13 07:56:00,
2013-12-13 03:00:00,23.5,15.8,30.43,SW,226,0.0,4.0,72,0.00,,,0.00,VWS V15.00,2013-12-13 08:00:00,
2013-12-13 03:01:00,23.4,15.7,30.43,SW,226,0.0,1.0,72,0.00,,,0.00,VWS V15.00,2013-12-13 08:01:00,
2013-12-13 03:06:00,23.3,15.9,30.43,SW,226,0.0,1.0,73,0.00,,,0.00,VWS V15.00,2013-12-13 08:06:00,
2013-12-13 03:11:00,23.2,16.2,30.42,SW,226,0.0,1.0,74,0.00,,,0.00,VWS V15.00,2013-12-13 08:11:00,
2013-12-13 03:16:00,23.0,16.0,30.42,SW,226,0.0,1.0,74,0.00,,,0.00,VWS V15.00,2013-12-13 08:16:00,
2013-12-13 03:21:00,22.9,16.2,30.42,SW,226,0.0,1.0,75,0.00,,,0.00,VWS V15.00,2013-12-13 08:21:00,
2013-12-13 03:26:00,22.7,16.3,30.43,SW,226,0.0,1.0,76,0.00,,,0.00,VWS V15.00,2013-12-13 08:26:00,
2013-12-13 03:30:00,22.6,16.2,30.42,SW,226,0.0,1.0,76,0.00,,,0.00,VWS V15.00,2013-12-13 08:30:00,
2013-12-13 03:31:00,22.5,16.1,30.42,SW,226,0.0,0.0,76,0.00,,,0.00,VWS V15.00,2013-12-13 08:31:00,
2013-12-13 03:36:00,22.3,15.9,30.43,SW,226,0.0,0.0,76,0.00,,,0.00,VWS V15.00,2013-12-13 08:36:00,
2013-12-13 03:41:00,22.1,15.7,30.42,SW,226,0.0,0.0,76,0.00,,,0.00,VWS V15.00,2013-12-13 08:41:00,
2013-12-13 03:46:00,21.9,15.8,30.42,SW,226,0.0,0.0,77,0.00,,,0.00,VWS V15.00,2013-12-13 08:46:00,
2013-12-13 03:51:00,21.7,15.9,30.42,SW,226,0.0,0.0,78,0.00,,,0.00,VWS V15.00,2013-12-13 08:51:00,
2013-12-13 03:56:00,21.5,15.7,30.42,SW,226,0.0,0.0,78,0.00,,,0.00,VWS V15.00,2013-12-13 08:56:00,
2013-12-13 04:00:00,21.4,15.6,30.42,SW,226,0.0,0.0,78,0.00,,,0.00,VWS V15.00,2013-12-13 09:00:00,
2013-12-13 04:01:00,21.3,15.8,30.42,SW,226,0.0,0.0,79,0.00,,,0.00,VWS V15.00,2013-12-13 09:01:00,
2013-12-13 04:06:00,21.1,15.3,30.42,SW,226,0.0,0.0,78,0.00,,,0.00,VWS V15.00,2013-12-13 09:06:00,
2013-12-13 04:11:00,20.9,15.4,30.42,SW,226,0.0,0.0,79,0.00,,,0.00,VWS V15.00,2013-12-13 09:11:00,
2013-12-13 04:16:00,20.8,15.3,30.42,SW,226,0.0,0.0,79,0.00,,,0.00,VWS V15.00,2013-12-13 09:16:00,
2013-12-13 04:21:00,20.7,15.5,30.42,SW,226,0.0,0.0,80,0.00,,,0.00,VWS V15.00,2013-12-13 09:21:00,
2013-12-13 04:26:00,20.5,15.3,30.42,SW,226,0.0,0.0,80,0.00,,,0.00,VWS V15.00,2013-12-13 09:26:00,
2013-12-13 04:30:00,20.4,15.2,30.42,SW,226,0.0,0.0,80,0.00,,,0.00,VWS V15.00,2013-12-13 09:30:00,
2013-12-13 04:31:00,20.4,15.2,30.42,SW,226,0.0,0.0,80,0.00,,,0.00,VWS V15.00,2013-12-13 09:31:00,
2013-12-13 04:36:00,20.2,15.0,30.42,SW,226,0.0,0.0,80,0.00,,,0.00,VWS V15.00,2013-12-13 09:36:00,
2013-12-13 04:41:00,20.1,15.2,30.42,SW,226,0.0,0.0,81,0.00,,,0.00,VWS V15.00,2013-12-13 09:41:00,
2013-12-13 04:46:00,20.0,15.1,30.42,SW,226,0.0,0.0,81,0.00,,,0.00,VWS V15.00,2013-12-13 09:46:00,
2013-12-13 04:51:00,19.9,15.3,30.42,SW,226,0.0,0.0,82,0.00,,,0.00,VWS V15.00,2013-12-13 09:51:00,
2013-12-13 04:56:00,19.9,15.3,30.42,SW,226,0.0,0.0,82,0.00,,,0.00,VWS V15.00,2013-12-13 09:56:00,
2013-12-13 05:00:00,19.8,15.2,30.42,SW,226,0.0,0.0,82,0.00,,,0.00,VWS V15.00,2013-12-13 10:00:00,
2013-12-13 05:01:00,19.8,15.2,30.42,SW,226,0.0,0.0,82,0.00,,,0.00,VWS V15.00,2013-12-13 10:01:00,
2013-12-13 05:06:00,19.7,15.1,30.42,SW,226,0.0,0.0,82,0.00,,,0.00,VWS V15.00,2013-12-13 10:06:00,
2013-12-13 05:11:00,19.5,15.2,30.42,SW,226,0.0,0.0,83,0.00,,,0.00,VWS V15.00,2013-12-13 10:11:00,
2013-12-13 05:16:00,19.5,15.2,30.42,SW,226,0.0,0.0,83,0.00,,,0.00,VWS V15.00,2013-12-13 10:16:00,
2013-12-13 05:21:00,19.4,15.1,30.42,SW,226,0.0,0.0,83,0.00,,,0.00,VWS V15.00,2013-12-13 10:21:00,
2013-12-13 05:26:00,19.3,15.0,30.42,SW,226,0.0,0.0,83,0.00,,,0.00,VWS V15.00,2013-12-13 10:26:00,
2013-12-13 05:30:00,19.3,15.0,30.42,SW,226,0.0,0.0,83,0.00,,,0.00,VWS V15.00,2013-12-13 10:30:00,
2013-12-13 05:31:00,19.3,15.0,30.42,SW,226,0.0,0.0,83,0.00,,,0.00,VWS V15.00,2013-12-13 10:31:00,
2013-12-13 05:36:00,19.2,14.9,30.42,SW,226,0.0,0.0,83,0.00,,,0.00,VWS V15.00,2013-12-13 10:36:00,
2013-12-13 05:41:00,19.1,14.8,30.42,SW,226,0.0,0.0,83,0.00,,,0.00,VWS V15.00,2013-12-13 10:41:00,
2013-12-13 05:46:00,19.1,15.1,30.42,SW,226,0.0,0.0,84,0.00,,,0.00,VWS V15.00,2013-12-13 10:46:00,
2013-12-13 05:51:00,19.0,15.0,30.42,SW,226,0.0,0.0,84,0.00,,,0.00,VWS V15.00,2013-12-13 10:51:00,
2013-12-13 05:56:00,18.9,14.9,30.42,SW,226,0.0,0.0,84,0.00,,,0.00,VWS V15.00,2013-12-13 10:56:00,
2013-12-13 06:00:00,18.9,14.9,30.42,SW,226,0.0,0.0,84,0.00,,,0.00,VWS V15.00,2013-12-13 11:00:00,
2013-12-13 06:01:00,18.9,14.9,30.42,SW,226,0.0,0.0,84,0.00,,,0.00,VWS V15.00,2013-12-13 11:01:00,
2013-12-13 06:06:00,18.8,14.8,30.42,SW,226,0.0,0.0,84,0.00,,,0.00,VWS V15.00,2013-12-13 11:06:00,
2013-12-13 06:11:00,18.7,14.7,30.42,SW,226,0.0,0.0,84,0.00,,,0.00,VWS V15.00,2013-12-13 11:11:00,
2013-12-13 06:16:00,18.7,16.8,30.42,SW,226,0.0,0.0,92,0.00,,,0.00,VWS V15.00,2013-12-13 11:16:00,
2013-12-13 06:21:00,18.6,14.6,30.42,SW,226,0.0,0.0,84,0.00,,,0.00,VWS V15.00,2013-12-13 11:21:00,
2013-12-13 06:26:00,18.5,14.5,30.43,SW,226,0.0,0.0,84,0.00,,,0.00,VWS V15.00,2013-12-13 11:26:00,
2013-12-13 06:30:00,18.5,14.5,30.43,SW,226,0.0,0.0,84,0.00,,,0.00,VWS V15.00,2013-12-13 11:30:00,
2013-12-13 06:31:00,18.4,14.4,30.43,SW,226,0.0,0.0,84,0.00,,,0.00,VWS V15.00,2013-12-13 11:31:00,
2013-12-13 06:36:00,18.4,14.4,30.43,SW,226,0.0,0.0,84,0.00,,,0.00,VWS V15.00,2013-12-13 11:36:00,
2013-12-13 06:41:00,18.2,14.2,30.43,SW,226,0.0,0.0,84,0.00,,,0.00,VWS V15.00,2013-12-13 11:41:00,
2013-12-13 06:46:00,18.2,14.2,30.43,SW,226,0.0,0.0,84,0.00,,,0.00,VWS V15.00,2013-12-13 11:46:00,
2013-12-13 06:51:00,18.2,14.5,30.43,SW,226,0.0,0.0,85,0.00,,,0.00,VWS V15.00,2013-12-13 11:51:00,
2013-12-13 06:56:00,18.1,14.4,30.43,SW,226,0.0,0.0,85,0.00,,,0.00,VWS V15.00,2013-12-13 11:56:00,
2013-12-13 07:00:00,18.1,14.4,30.43,SW,226,0.0,0.0,85,0.00,,,0.00,VWS V15.00,2013-12-13 12:00:00,
2013-12-13 07:01:00,18.1,14.4,30.43,SW,226,0.0,0.0,85,0.00,,,0.00,VWS V15.00,2013-12-13 12:01:00,
2013-12-13 07:06:00,18.0,14.3,30.43,SW,226,0.0,0.0,85,0.00,,,0.00,VWS V15.00,2013-12-13 12:06:00,
2013-12-13 07:11:00,18.0,14.3,30.43,SW,226,0.0,0.0,85,0.00,,,0.00,VWS V15.00,2013-12-13 12:11:00,
2013-12-13 07:16:00,17.9,14.2,30.43,SW,226,0.0,0.0,85,0.00,,,0.00,VWS V15.00,2013-12-13 12:16:00,
2013-12-13 07:21:00,17.9,14.2,30.43,SW,226,0.0,0.0,85,0.00,,,0.00,VWS V15.00,2013-12-13 12:21:00,
2013-12-13 07:24:00,17.8,14.1,30.43,SW,226,0.0,0.0,85,0.00,,,0.00,VWS V15.00,2013-12-13 12:24:00,
2013-12-13 07:29:00,17.7,14.0,30.43,SW,226,0.0,0.0,85,0.00,,,0.00,VWS V15.00,2013-12-13 12:29:00,
2013-12-13 07:30:00,17.7,14.0,30.43,SW,226,0.0,0.0,85,0.00,,,0.00,VWS V15.00,2013-12-13 12:30:00,
2013-12-13 07:34:00,17.7,14.0,30.43,SW,226,0.0,0.0,85,0.00,,,0.00,VWS V15.00,2013-12-13 12:34:00,
2013-12-13 07:39:00,17.7,14.0,30.43,SW,226,0.0,0.0,85,0.00,,,0.00,VWS V15.00,2013-12-13 12:39:00,
2013-12-13 07:44:00,17.7,14.0,30.43,SW,226,0.0,0.0,85,0.00,,,0.00,VWS V15.00,2013-12-13 12:44:00,
2013-12-13 07:49:00,17.7,14.0,30.44,SW,226,0.0,0.0,85,0.00,,,0.00,VWS V15.00,2013-12-13 12:49:00,
2013-12-13 07:54:00,17.7,14.0,30.44,SW,226,0.0,0.0,85,0.00,,,0.00,VWS V15.00,2013-12-13 12:54:00,
2013-12-13 07:59:00,17.8,14.1,30.44,SW,226,0.0,0.0,85,0.00,,,0.00,VWS V15.00,2013-12-13 12:59:00,
2013-12-13 08:00:00,17.8,14.1,30.44,SW,226,0.0,0.0,85,0.00,,,0.00,VWS V15.00,2013-12-13 13:00:00,
2013-12-13 08:04:00,17.9,14.2,30.43,SW,226,0.0,0.0,85,0.00,,,0.00,VWS V15.00,2013-12-13 13:04:00,
2013-12-13 08:09:00,17.9,14.2,30.44,SW,226,0.0,0.0,85,0.00,,,0.00,VWS V15.00,2013-12-13 13:09:00,
2013-12-13 08:14:00,18.0,14.3,30.44,SW,226,0.0,0.0,85,0.00,,,0.00,VWS V15.00,2013-12-13 13:14:00,
2013-12-13 08:19:00,18.2,14.5,30.44,SW,226,0.0,0.0,85,0.00,,,0.00,VWS V15.00,2013-12-13 13:19:00,
2013-12-13 08:24:00,18.6,14.9,30.44,SW,226,0.0,0.0,85,0.00,,,0.00,VWS V15.00,2013-12-13 13:24:00,
2013-12-13 08:29:00,19.0,15.0,30.45,SW,226,0.0,0.0,84,0.00,,,0.00,VWS V15.00,2013-12-13 13:29:00,
2013-12-13 08:30:00,19.0,15.0,30.45,SW,226,0.0,0.0,84,0.00,,,0.00,VWS V15.00,2013-12-13 13:30:00,
2013-12-13 08:34:00,19.5,15.7,30.44,SW,226,0.0,0.0,85,0.00,,,0.00,VWS V15.00,2013-12-13 13:34:00,
2013-12-13 08:39:00,20.2,16.1,30.44,SW,226,0.0,0.0,84,0.00,,,0.00,VWS V15.00,2013-12-13 13:39:00,
2013-12-13 08:44:00,21.2,17.4,30.44,SW,226,0.0,0.0,85,0.00,,,0.00,VWS V15.00,2013-12-13 13:44:00,
2013-12-13 08:49:00,21.9,17.8,30.44,SW,226,0.0,0.0,84,0.00,,,0.00,VWS V15.00,2013-12-13 13:49:00,
2013-12-13 08:54:00,22.4,17.5,30.44,SW,226,0.0,0.0,81,0.00,,,0.00,VWS V15.00,2013-12-13 13:54:00,
2013-12-13 08:59:00,22.7,17.8,30.44,SW,226,0.0,0.0,81,0.00,,,0.00,VWS V15.00,2013-12-13 13:59:00,
2013-12-13 09:00:00,22.7,17.8,30.44,SW,226,0.0,0.0,81,0.00,,,0.00,VWS V15.00,2013-12-13 14:00:00,
2013-12-13 09:04:00,23.0,17.2,30.44,SW,226,0.0,0.0,78,0.00,,,0.00,VWS V15.00,2013-12-13 14:04:00,
2013-12-13 09:09:00,23.2,17.1,30.44,SW,226,0.0,0.0,77,0.00,,,0.00,VWS V15.00,2013-12-13 14:09:00,
2013-12-13 09:14:00,23.6,17.2,30.44,SW,226,0.0,0.0,76,0.00,,,0.00,VWS V15.00,2013-12-13 14:14:00,
2013-12-13 09:19:00,24.3,17.5,30.45,SW,226,0.0,0.0,75,0.00,,,0.00,VWS V15.00,2013-12-13 14:19:00,
2013-12-13 09:24:00,25.1,17.7,30.45,SW,226,0.0,0.0,73,0.00,,,0.00,VWS V15.00,2013-12-13 14:24:00,
2013-12-13 09:29:00,25.8,17.7,30.45,SW,226,1.0,2.0,71,0.00,,,0.00,VWS V15.00,2013-12-13 14:29:00,
2013-12-13 09:30:00,25.8,17.7,30.45,SW,226,2.0,2.0,71,0.00,,,0.00,VWS V15.00,2013-12-13 14:30:00,
2013-12-13 09:34:00,26.3,17.2,30.45,SW,226,2.0,3.0,68,0.00,,,0.00,VWS V15.00,2013-12-13 14:34:00,
2013-12-13 09:39:00,26.6,17.8,30.45,SW,226,0.0,3.0,69,0.00,,,0.00,VWS V15.00,2013-12-13 14:39:00,
2013-12-13 09:44:00,27.2,17.4,30.46,SW,226,0.0,3.0,66,0.00,,,0.00,VWS V15.00,2013-12-13 14:44:00,
2013-12-13 09:49:00,27.5,18.0,30.46,SW,226,0.0,3.0,67,0.00,,,0.00,VWS V15.00,2013-12-13 14:49:00,
2013-12-13 09:54:00,28.2,18.0,30.46,SW,226,0.0,3.0,65,0.00,,,0.00,VWS V15.00,2013-12-13 14:54:00,
2013-12-13 09:59:00,28.8,17.4,30.45,SW,226,0.0,0.0,62,0.00,,,0.00,VWS V15.00,2013-12-13 14:59:00,
2013-12-13 10:00:00,28.8,17.4,30.45,SW,226,0.0,3.0,62,0.00,,,0.00,VWS V15.00,2013-12-13 15:00:00,
2013-12-13 10:04:00,29.2,17.1,30.45,SW,228,0.0,3.0,60,0.00,,,0.00,VWS V15.00,2013-12-13 15:04:00,
2013-12-13 10:09:00,29.5,17.0,30.45,SW,228,0.0,3.0,59,0.00,,,0.00,VWS V15.00,2013-12-13 15:09:00,
2013-12-13 10:14:00,29.7,16.8,30.45,SW,228,0.0,3.0,58,0.00,,,0.00,VWS V15.00,2013-12-13 15:14:00,
2013-12-13 10:19:00,29.9,16.5,30.45,SW,228,0.0,3.0,57,0.00,,,0.00,VWS V15.00,2013-12-13 15:19:00,
2013-12-13 10:24:00,30.4,17.0,30.45,SW,228,1.0,3.0,57,0.00,,,0.00,VWS V15.00,2013-12-13 15:24:00,
2013-12-13 10:29:00,30.9,17.5,30.45,SW,228,0.0,0.0,57,0.00,,,0.00,VWS V15.00,2013-12-13 15:29:00,
2013-12-13 10:30:00,30.9,17.5,30.45,SW,228,0.0,3.0,57,0.00,,,0.00,VWS V15.00,2013-12-13 15:30:00,
2013-12-13 10:34:00,31.4,17.5,30.44,SW,228,0.0,1.0,56,0.00,,,0.00,VWS V15.00,2013-12-13 15:34:00,
2013-12-13 10:39:00,32.0,17.7,30.44,SW,228,0.0,1.0,55,0.00,,,0.00,VWS V15.00,2013-12-13 15:39:00,
2013-12-13 10:44:00,32.5,17.3,30.44,SW,228,0.0,1.0,53,0.00,,,0.00,VWS V15.00,2013-12-13 15:44:00,
2013-12-13 10:49:00,33.1,17.4,30.44,ENE,67,0.0,1.0,52,0.00,,,0.00,VWS V15.00,2013-12-13 15:49:00,
2013-12-13 10:54:00,33.7,17.5,30.43,SSE,157,0.0,2.0,51,0.00,,,0.00,VWS V15.00,2013-12-13 15:54:00,
2013-12-13 10:59:00,34.4,17.7,30.43,SSE,158,0.0,0.0,50,0.00,,,0.00,VWS V15.00,2013-12-13 15:59:00,
2013-12-13 11:00:00,34.4,17.7,30.43,SSE,158,0.0,2.0,50,0.00,,,0.00,VWS V15.00,2013-12-13 16:00:00,
2013-12-13 11:04:00,35.0,18.2,30.43,South,169,1.0,2.0,50,0.00,,,0.00,VWS V15.00,2013-12-13 16:04:00,
2013-12-13 11:09:00,35.7,18.0,30.43,WSW,252,2.0,2.0,48,0.00,,,0.00,VWS V15.00,2013-12-13 16:09:00,
2013-12-13 11:14:00,35.8,18.0,30.42,SSE,165,0.0,3.0,48,0.00,,,0.00,VWS V15.00,2013-12-13 16:14:00,
2013-12-13 11:19:00,36.2,18.9,30.42,South,184,0.0,3.0,49,0.00,,,0.00,VWS V15.00,2013-12-13 16:19:00,
2013-12-13 11:24:00,37.0,18.7,30.42,SSW,207,2.0,3.0,47,0.00,,,0.00,VWS V15.00,2013-12-13 16:24:00,
2013-12-13 11:29:00,37.1,18.2,30.42,SW,231,1.0,1.0,46,0.00,,,0.00,VWS V15.00,2013-12-13 16:29:00,
2013-12-13 11:30:00,37.1,18.2,30.42,SW,231,1.0,4.0,46,0.00,,,0.00,VWS V15.00,2013-12-13 16:30:00,
2013-12-13 11:34:00,37.1,17.7,30.42,SW,231,0.0,3.0,45,0.00,,,0.00,VWS V15.00,2013-12-13 16:34:00,
2013-12-13 11:39:00,37.4,18.5,30.41,West,259,0.0,4.0,46,0.00,,,0.00,VWS V15.00,2013-12-13 16:39:00,
2013-12-13 11:44:00,37.7,18.8,30.41,WSW,255,0.0,4.0,46,0.00,,,0.00,VWS V15.00,2013-12-13 16:44:00,
2013-12-13 11:49:00,37.9,18.0,30.41,WSW,255,2.0,4.0,44,0.00,,,0.00,VWS V15.00,2013-12-13 16:49:00,
2013-12-13 11:54:00,38.2,18.8,30.41,WNW,283,0.0,4.0,45,0.00,,,0.00,VWS V15.00,2013-12-13 16:54:00,
2013-12-13 11:59:00,38.7,18.7,30.40,WNW,283,0.0,0.0,44,0.00,,,0.00,VWS V15.00,2013-12-13 16:59:00,
2013-12-13 12:00:00,38.7,18.7,30.40,WNW,283,0.0,4.0,44,0.00,,,0.00,VWS V15.00,2013-12-13 17:00:00,
2013-12-13 12:04:00,39.2,19.1,30.40,WNW,283,0.0,1.0,44,0.00,,,0.00,VWS V15.00,2013-12-13 17:04:00,
2013-12-13 12:09:00,39.9,18.7,30.39,South,184,0.0,1.0,42,0.00,,,0.00,VWS V15.00,2013-12-13 17:09:00,
2013-12-13 12:14:00,40.5,18.7,30.39,SW,223,1.0,3.0,41,0.00,,,0.00,VWS V15.00,2013-12-13 17:14:00,
2013-12-13 12:19:00,41.1,19.2,30.38,SSW,213,0.0,3.0,41,0.00,,,0.00,VWS V15.00,2013-12-13 17:19:00,
2013-12-13 12:24:00,41.7,18.6,30.38,SSW,213,0.0,3.0,39,0.00,,,0.00,VWS V15.00,2013-12-13 17:24:00,
2013-12-13 12:29:00,42.4,19.2,30.38,SSW,213,0.0,0.0,39,0.00,,,0.00,VWS V15.00,2013-12-13 17:29:00,
2013-12-13 12:30:00,42.4,19.2,30.38,SSW,213,0.0,3.0,39,0.00,,,0.00,VWS V15.00,2013-12-13 17:30:00,
2013-12-13 12:34:00,42.9,18.4,30.37,South,185,0.0,3.0,37,0.00,,,0.00,VWS V15.00,2013-12-13 17:34:00,
2013-12-13 12:39:00,43.0,19.1,30.37,South,185,0.0,3.0,38,0.00,,,0.00,VWS V15.00,2013-12-13 17:39:00,
2013-12-13 12:44:00,43.3,20.0,30.37,WNW,286,1.0,3.0,39,0.00,,,0.00,VWS V15.00,2013-12-13 17:44:00,
2013-12-13 12:49:00,43.8,19.9,30.37,WNW,286,0.0,3.0,38,0.00,,,0.00,VWS V15.00,2013-12-13 17:49:00,
2013-12-13 12:54:00,44.0,20.6,30.36,WSW,253,0.0,4.0,39,0.00,,,0.00,VWS V15.00,2013-12-13 17:54:00,
2013-12-13 12:59:00,43.9,20.0,30.36,SSW,207,0.0,0.0,38,0.00,,,0.00,VWS V15.00,2013-12-13 17:59:00,
2013-12-13 13:00:00,43.9,20.0,30.36,SSW,207,1.0,4.0,38,0.00,,,0.00,VWS V15.00,2013-12-13 18:00:00,
2013-12-13 13:04:00,43.9,20.0,30.36,SW,236,0.0,3.0,38,0.00,,,0.00,VWS V15.00,2013-12-13 18:04:00,
2013-12-13 13:09:00,43.8,19.9,30.35,SW,219,1.0,4.0,38,0.00,,,0.00,VWS V15.00,2013-12-13 18:09:00,
2013-12-13 13:14:00,43.8,19.9,30.36,SSE,148,0.0,4.0,38,0.00,,,0.00,VWS V15.00,2013-12-13 18:14:00,
2013-12-13 13:19:00,44.7,21.3,30.36,SSE,161,0.0,4.0,39,0.00,,,0.00,VWS V15.00,2013-12-13 18:19:00,
2013-12-13 13:24:00,45.5,21.4,30.35,West,262,2.0,4.0,38,0.00,,,0.00,VWS V15.00,2013-12-13 18:24:00,
2013-12-13 13:29:00,46.0,20.6,30.35,WSW,250,0.0,0.0,36,0.00,,,0.00,VWS V15.00,2013-12-13 18:29:00,
2013-12-13 13:30:00,46.0,20.6,30.35,WSW,250,0.0,4.0,36,0.00,,,0.00,VWS V15.00,2013-12-13 18:30:00,
2013-12-13 13:34:00,46.5,21.6,30.35,South,176,0.0,3.0,37,0.00,,,0.00,VWS V15.00,2013-12-13 18:34:00,
2013-12-13 13:39:00,46.5,19.7,30.34,West,261,0.0,4.0,34,0.00,,,0.00,VWS V15.00,2013-12-13 18:39:00,
2013-12-13 13:44:00,46.5,20.3,30.34,South,181,2.0,4.0,35,0.00,,,0.00,VWS V15.00,2013-12-13 18:44:00,
2013-12-13 13:49:00,46.4,19.6,30.34,SW,231,1.0,4.0,34,0.00,,,0.00,VWS V15.00,2013-12-13 18:49:00,
2013-12-13 13:54:00,46.5,20.3,30.34,South,174,0.0,4.0,35,0.00,,,0.00,VWS V15.00,2013-12-13 18:54:00,
2013-12-13 13:59:00,46.8,19.9,30.33,SSW,192,0.0,0.0,34,0.00,,,0.00,VWS V15.00,2013-12-13 18:59:00,
2013-12-13 14:00:00,46.8,19.9,30.33,SSW,192,0.0,4.0,34,0.00,,,0.00,VWS V15.00,2013-12-13 19:00:00,
2013-12-13 14:03:00,47.1,20.2,30.33,SSW,200,0.0,2.0,34,0.00,,,0.00,VWS V15.00,2013-12-13 19:03:00,
2013-12-13 14:08:00,47.2,21.0,30.33,SSW,198,0.0,3.0,35,0.00,,,0.00,VWS V15.00,2013-12-13 19:08:00,
2013-12-13 14:13:00,47.6,21.3,30.33,WSW,250,4.0,4.0,35,0.00,,,0.00,VWS V15.00,2013-12-13 19:13:00,
2013-12-13 14:18:00,47.8,20.1,30.33,West,265,0.0,5.0,33,0.00,,,0.00,VWS V15.00,2013-12-13 19:18:00,
2013-12-13 14:23:00,48.3,20.5,30.33,SW,221,0.0,5.0,33,0.00,,,0.00,VWS V15.00,2013-12-13 19:23:00,
2013-12-13 14:28:00,48.7,21.6,30.32,SSW,199,0.0,5.0,34,0.00,,,0.00,VWS V15.00,2013-12-13 19:28:00,
2013-12-13 14:30:00,48.7,21.6,30.32,SSW,199,0.0,5.0,34,0.00,,,0.00,VWS V15.00,2013-12-13 19:30:00,
2013-12-13 14:33:00,48.9,21.1,30.32,SSW,192,0.0,2.0,33,0.00,,,0.00,VWS V15.00,2013-12-13 19:33:00,
2013-12-13 14:38:00,49.0,19.7,30.32,SSE,164,0.0,3.0,31,0.00,,,0.00,VWS V15.00,2013-12-13 19:38:00,
2013-12-13 14:43:00,49.2,20.6,30.32,South,170,0.0,3.0,32,0.00,,,0.00,VWS V15.00,2013-12-13 19:43:00,
2013-12-13 14:48:00,49.5,19.4,30.32,SSE,156,0.0,4.0,30,0.00,,,0.00,VWS V15.00,2013-12-13 19:48:00,
2013-12-13 14:53:00,49.4,20.8,30.31,SSE,153,0.0,4.0,32,0.00,,,0.00,VWS V15.00,2013-12-13 19:53:00,
2013-12-13 14:58:00,49.5,20.9,30.31,West,260,0.0,4.0,32,0.00,,,0.00,VWS V15.00,2013-12-13 19:58:00,
2013-12-13 15:00:00,49.5,20.9,30.31,West,260,0.0,4.0,32,0.00,,,0.00,VWS V15.00,2013-12-13 20:00:00,
2013-12-13 15:03:00,49.9,19.7,30.32,West,260,0.0,1.0,30,0.00,,,0.00,VWS V15.00,2013-12-13 20:03:00,
2013-12-13 15:08:00,50.3,20.1,30.31,West,260,0.0,1.0,30,0.00,,,0.00,VWS V15.00,2013-12-13 20:08:00,
2013-12-13 15:13:00,50.5,21.0,30.32,West,278,1.0,1.0,31,0.00,,,0.00,VWS V15.00,2013-12-13 20:13:00,
2013-12-13 15:18:00,50.4,23.1,30.32,West,279,0.0,1.0,34,0.00,,,0.00,VWS V15.00,2013-12-13 20:18:00,
2013-12-13 15:23:00,50.1,22.8,30.31,West,281,0.0,2.0,34,0.00,,,0.00,VWS V15.00,2013-12-13 20:23:00,
2013-12-13 15:28:00,50.1,22.8,30.31,West,281,0.0,2.0,34,0.00,,,0.00,VWS V15.00,2013-12-13 20:28:00,
2013-12-13 15:30:00,50.1,22.8,30.31,West,281,0.0,2.0,34,0.00,,,0.00,VWS V15.00,2013-12-13 20:30:00,
2013-12-13 15:33:00,50.1,23.5,30.31,ENE,59,0.0,2.0,35,0.00,,,0.00,VWS V15.00,2013-12-13 20:33:00,
2013-12-13 15:38:00,50.0,23.4,30.31,ENE,59,0.0,2.0,35,0.00,,,0.00,VWS V15.00,2013-12-13 20:38:00,
2013-12-13 15:43:00,49.7,23.2,30.31,ENE,59,0.0,2.0,35,0.00,,,0.00,VWS V15.00,2013-12-13 20:43:00,
2013-12-13 15:48:00,49.1,23.3,30.31,ENE,61,2.0,5.0,36,0.00,,,0.00,VWS V15.00,2013-12-13 20:48:00,
2013-12-13 15:53:00,48.1,22.4,30.31,ENE,66,1.0,5.0,36,0.00,,,0.00,VWS V15.00,2013-12-13 20:53:00,
2013-12-13 15:58:00,47.2,22.9,30.31,NE,49,3.0,8.0,38,0.00,,,0.00,VWS V15.00,2013-12-13 20:58:00,
2013-12-13 16:00:00,47.2,22.9,30.31,NE,36,2.0,8.0,38,0.00,,,0.00,VWS V15.00,2013-12-13 21:00:00,
2013-12-13 16:03:00,46.4,22.8,30.31,ENE,78,0.0,5.0,39,0.00,,,0.00,VWS V15.00,2013-12-13 21:03:00,
2013-12-13 16:08:00,46.0,23.0,30.31,ENE,68,0.0,5.0,40,0.00,,,0.00,VWS V15.00,2013-12-13 21:08:00,
2013-12-13 16:13:00,45.5,22.6,30.31,East,90,2.0,6.0,40,0.00,,,0.00,VWS V15.00,2013-12-13 21:13:00,
2013-12-13 16:18:00,45.1,22.8,30.31,ENE,74,1.0,6.0,41,0.00,,,0.00,VWS V15.00,2013-12-13 21:18:00,
2013-12-13 16:23:00,44.7,23.0,30.31,ENE,63,1.0,6.0,42,0.00,,,0.00,VWS V15.00,2013-12-13 21:23:00,
2013-12-13 16:28:00,44.5,22.9,30.31,ENE,63,0.0,6.0,42,0.00,,,0.00,VWS V15.00,2013-12-13 21:28:00,
2013-12-13 16:30:00,44.4,22.8,30.31,ENE,63,0.0,6.0,42,0.00,,,0.00,VWS V15.00,2013-12-13 21:30:00,
2013-12-13 16:33:00,44.1,23.0,30.31,East,79,2.0,3.0,43,0.00,,,0.00,VWS V15.00,2013-12-13 21:33:00,
2013-12-13 16:38:00,43.8,22.2,30.31,NE,55,0.0,5.0,42,0.00,,,0.00,VWS V15.00,2013-12-13 21:38:00,
2013-12-13 16:43:00,43.6,22.6,30.31,NE,55,2.0,5.0,43,0.00,,,0.00,VWS V15.00,2013-12-13 21:43:00,
2013-12-13 16:48:00,43.3,22.9,30.31,ENE,72,2.0,5.0,44,0.00,,,0.00,VWS V15.00,2013-12-13 21:48:00,
2013-12-13 16:53:00,43.1,22.7,30.31,ENE,67,2.0,5.0,44,0.00,,,0.00,VWS V15.00,2013-12-13 21:53:00,
2013-12-13 16:58:00,42.8,22.4,30.31,ENE,73,0.0,5.0,44,0.00,,,0.00,VWS V15.00,2013-12-13 21:58:00,
2013-12-13 17:00:00,42.8,22.4,30.31,ENE,73,1.0,5.0,44,0.00,,,0.00,VWS V15.00,2013-12-13 22:00:00,
2013-12-13 17:03:00,42.7,22.3,30.31,ENE,65,2.0,5.0,44,0.00,,,0.00,VWS V15.00,2013-12-13 22:03:00,
2013-12-13 17:08:00,42.5,22.1,30.31,NE,49,0.0,5.0,44,0.00,,,0.00,VWS V15.00,2013-12-13 22:08:00,
2013-12-13 17:13:00,42.4,23.1,30.31,NNE,33,1.0,5.0,46,0.00,,,0.00,VWS V15.00,2013-12-13 22:13:00,
2013-12-13 17:18:00,42.2,22.4,30.31,ENE,64,0.0,7.0,45,0.00,,,0.00,VWS V15.00,2013-12-13 22:18:00,
2013-12-13 17:23:00,42.0,22.2,30.31,ENE,64,0.0,7.0,45,0.00,,,0.00,VWS V15.00,2013-12-13 22:23:00,
2013-12-13 17:28:00,41.8,22.0,30.32,ENE,64,0.0,7.0,45,0.00,,,0.00,VWS V15.00,2013-12-13 22:28:00,
2013-12-13 17:30:00,41.7,21.9,30.32,ENE,64,0.0,7.0,45,0.00,,,0.00,VWS V15.00,2013-12-13 22:30:00,
2013-12-13 17:33:00,41.5,22.3,30.32,NE,49,0.0,4.0,46,0.00,,,0.00,VWS V15.00,2013-12-13 22:33:00,
2013-12-13 17:38:00,41.2,22.5,30.32,NE,49,0.0,4.0,47,0.00,,,0.00,VWS V15.00,2013-12-13 22:38:00,
2013-12-13 17:43:00,40.7,22.5,30.32,NE,49,0.0,4.0,48,0.00,,,0.00,VWS V15.00,2013-12-13 22:43:00,
2013-12-13 17:48:00,40.3,22.7,30.32,NE,55,0.0,4.0,49,0.00,,,0.00,VWS V15.00,2013-12-13 22:48:00,
2013-12-13 17:53:00,40.1,22.0,30.32,NE,55,0.0,4.0,48,0.00,,,0.00,VWS V15.00,2013-12-13 22:53:00,
2013-12-13 17:58:00,39.7,23.5,30.32,NE,55,0.0,4.0,52,0.00,,,0.00,VWS V15.00,2013-12-13 22:58:00,
2013-12-13 18:00:00,39.7,23.5,30.32,NE,55,0.0,4.0,52,0.00,,,0.00,VWS V15.00,2013-12-13 23:00:00,
2013-12-13 18:03:00,39.2,24.0,30.31,NE,55,0.0,1.0,54,0.00,,,0.00,VWS V15.00,2013-12-13 23:03:00,
2013-12-13 18:08:00,38.6,23.8,30.32,NE,55,0.0,2.0,55,0.00,,,0.00,VWS V15.00,2013-12-13 23:08:00,
2013-12-13 18:13:00,38.2,23.9,30.32,NE,55,0.0,2.0,56,0.00,,,0.00,VWS V15.00,2013-12-13 23:13:00,
2013-12-13 18:18:00,37.8,23.5,30.32,NE,55,0.0,2.0,56,0.00,,,0.00,VWS V15.00,2013-12-13 23:18:00,
2013-12-13 18:23:00,37.5,22.8,30.32,NE,55,0.0,2.0,55,0.00,,,0.00,VWS V15.00,2013-12-13 23:23:00,
2013-12-13 18:28:00,37.2,23.0,30.33,NE,55,0.0,2.0,56,0.00,,,0.00,VWS V15.00,2013-12-13 23:28:00,
2013-12-13 18:30:00,37.2,23.0,30.33,NE,55,0.0,2.0,56,0.00,,,0.00,VWS V15.00,2013-12-13 23:30:00,
2013-12-13 18:33:00,37.0,23.6,30.34,NE,55,0.0,0.0,58,0.00,,,0.00,VWS V15.00,2013-12-13 23:33:00,
2013-12-13 18:38:00,36.7,24.5,30.33,NE,55,0.0,0.0,61,0.00,,,0.00,VWS V15.00,2013-12-13 23:38:00,
2013-12-13 18:43:00,36.4,25.0,30.33,NE,55,0.0,0.0,63,0.00,,,0.00,VWS V15.00,2013-12-13 23:43:00,
2013-12-13 18:48:00,36.2,24.8,30.33,NE,55,0.0,1.0,63,0.00,,,0.00,VWS V15.00,2013-12-13 23:48:00,
2013-12-13 18:53:00,36.2,24.8,30.32,NE,55,0.0,1.0,63,0.00,,,0.00,VWS V15.00,2013-12-13 23:53:00,
2013-12-13 18:58:00,36.1,25.5,30.32,NE,55,0.0,1.0,65,0.00,,,0.00,VWS V15.00,2013-12-13 23:58:00,
2013-12-13 19:00:00,36.1,25.5,30.32,NE,55,0.0,1.0,65,0.00,,,0.00,VWS V15.00,2013-12-14 00:00:00,
2013-12-13 19:03:00,36.1,25.5,30.31,NE,55,0.0,0.0,65,0.00,,,0.00,VWS V15.00,2013-12-14 00:03:00,
2013-12-13 19:08:00,36.0,25.4,30.31,NE,55,0.0,1.0,65,0.00,,,0.00,VWS V15.00,2013-12-14 00:08:00,
2013-12-13 19:13:00,36.0,25.4,30.31,NE,55,0.0,1.0,65,0.00,,,0.00,VWS V15.00,2013-12-14 00:13:00,
2013-12-13 19:18:00,36.0,24.6,30.32,NE,55,0.0,1.0,63,0.00,,,0.00,VWS V15.00,2013-12-14 00:18:00,
2013-12-13 19:23:00,36.0,24.6,30.32,NE,55,0.0,1.0,63,0.00,,,0.00,VWS V15.00,2013-12-14 00:23:00,
2013-12-13 19:28:00,36.1,24.4,30.32,NE,55,0.0,1.0,62,0.00,,,0.00,VWS V15.00,2013-12-14 00:28:00,
2013-12-13 19:30:00,36.1,24.4,30.32,NE,55,0.0,1.0,62,0.00,,,0.00,VWS V15.00,2013-12-14 00:30:00,
2013-12-13 19:33:00,36.3,24.5,30.32,NE,55,0.0,2.0,62,0.00,,,0.00,VWS V15.00,2013-12-14 00:33:00,
2013-12-13 19:38:00,36.4,25.8,30.32,NE,55,0.0,2.0,65,0.00,,,0.00,VWS V15.00,2013-12-14 00:38:00,
2013-12-13 19:43:00,36.4,25.4,30.32,NE,55,0.0,2.0,64,0.00,,,0.00,VWS V15.00,2013-12-14 00:43:00,
2013-12-13 19:48:00,36.3,25.7,30.32,NE,55,0.0,2.0,65,0.00,,,0.00,VWS V15.00,2013-12-14 00:48:00,
2013-12-13 19:53:00,36.2,25.2,30.32,NE,55,0.0,2.0,64,0.00,,,0.00,VWS V15.00,2013-12-14 00:53:00,
2013-12-13 19:58:00,36.2,26.0,30.33,NE,55,0.0,2.0,66,0.00,,,0.00,VWS V15.00,2013-12-14 00:58:00,
2013-12-13 20:00:00,36.2,26.0,30.33,NE,55,0.0,2.0,66,0.00,,,0.00,VWS V15.00,2013-12-14 01:00:00,
2013-12-13 20:03:00,36.1,25.5,30.32,NE,55,0.0,0.0,65,0.00,,,0.00,VWS V15.00,2013-12-14 01:03:00,
2013-12-13 20:08:00,36.1,25.5,30.33,NE,55,0.0,0.0,65,0.00,,,0.00,VWS V15.00,2013-12-14 01:08:00,
2013-12-13 20:13:00,36.1,26.2,30.33,NE,55,0.0,0.0,67,0.00,,,0.00,VWS V15.00,2013-12-14 01:13:00,
2013-12-13 20:18:00,36.1,26.6,30.33,NE,55,0.0,0.0,68,0.00,,,0.00,VWS V15.00,2013-12-14 01:18:00,
2013-12-13 20:23:00,36.1,25.9,30.33,NE,55,0.0,1.0,66,0.00,,,0.00,VWS V15.00,2013-12-14 01:23:00,
2013-12-13 20:28:00,36.2,25.6,30.34,NE,55,0.0,1.0,65,0.00,,,0.00,VWS V15.00,2013-12-14 01:28:00,
2013-12-13 20:30:00,36.2,25.6,30.34,NE,55,0.0,1.0,65,0.00,,,0.00,VWS V15.00,2013-12-14 01:30:00,
2013-12-13 20:33:00,36.3,26.4,30.34,NE,55,0.0,0.0,67,0.00,,,0.00,VWS V15.00,2013-12-14 01:33:00,
2013-12-13 20:38:00,36.4,26.9,30.34,NE,55,0.0,0.0,68,0.00,,,0.00,VWS V15.00,2013-12-14 01:38:00,
2013-12-13 20:43:00,36.2,26.3,30.34,NE,55,0.0,0.0,67,0.00,,,0.00,VWS V15.00,2013-12-14 01:43:00,
2013-12-13 20:48:00,36.1,26.2,30.34,NE,55,0.0,0.0,67,0.00,,,0.00,VWS V15.00,2013-12-14 01:48:00,
2013-12-13 20:53:00,36.1,26.2,30.34,NE,55,0.0,0.0,67,0.00,,,0.00,VWS V15.00,2013-12-14 01:53:00,
2013-12-13 20:58:00,36.0,26.8,30.33,NE,55,0.0,0.0,69,0.00,,,0.00,VWS V15.00,2013-12-14 01:58:00,
2013-12-13 21:00:00,36.0,26.8,30.33,NE,55,0.0,0.0,69,0.00,,,0.00,VWS V15.00,2013-12-14 02:00:00,
2013-12-13 21:03:00,35.9,27.1,30.32,NE,55,0.0,0.0,70,0.00,,,0.00,VWS V15.00,2013-12-14 02:03:00,
2013-12-13 21:08:00,35.9,26.7,30.32,NE,55,0.0,0.0,69,0.00,,,0.00,VWS V15.00,2013-12-14 02:08:00,
2013-12-13 21:13:00,35.8,26.6,30.33,NE,55,0.0,0.0,69,0.00,,,0.00,VWS V15.00,2013-12-14 02:13:00,
2013-12-13 21:18:00,35.8,27.0,30.33,NE,55,0.0,0.0,70,0.00,,,0.00,VWS V15.00,2013-12-14 02:18:00,
2013-12-13 21:23:00,35.8,27.3,30.33,NE,55,0.0,0.0,71,0.00,,,0.00,VWS V15.00,2013-12-14 02:23:00,
2013-12-13 21:28:00,35.8,27.0,30.33,NE,55,0.0,0.0,70,0.00,,,0.00,VWS V15.00,2013-12-14 02:28:00,
2013-12-13 21:30:00,35.8,27.0,30.33,NE,55,0.0,0.0,70,0.00,,,0.00,VWS V15.00,2013-12-14 02:30:00,
2013-12-13 21:33:00,35.8,27.0,30.33,NE,55,0.0,0.0,70,0.00,,,0.00,VWS V15.00,2013-12-14 02:33:00,
2013-12-13 21:38:00,35.9,27.4,30.33,NE,55,0.0,2.0,71,0.00,,,0.00,VWS V15.00,2013-12-14 02:38:00,
2013-12-13 21:43:00,35.9,27.4,30.33,NE,55,0.0,2.0,71,0.00,,,0.00,VWS V15.00,2013-12-14 02:43:00,
2013-12-13 21:48:00,35.9,27.4,30.33,NE,55,0.0,2.0,71,0.00,,,0.00,VWS V15.00,2013-12-14 02:48:00,
2013-12-13 21:53:00,36.0,27.9,30.33,NE,55,0.0,2.0,72,0.00,,,0.00,VWS V15.00,2013-12-14 02:53:00,
2013-12-13 21:58:00,36.0,27.2,30.33,NE,55,0.0,2.0,70,0.00,,,0.00,VWS V15.00,2013-12-14 02:58:00,
2013-12-13 22:00:00,36.0,27.2,30.33,NE,55,0.0,2.0,70,0.00,,,0.00,VWS V15.00,2013-12-14 03:00:00,
2013-12-13 22:03:00,36.0,27.9,30.33,NE,55,0.0,0.0,72,0.00,,,0.00,VWS V15.00,2013-12-14 03:03:00,
2013-12-13 22:08:00,35.9,27.4,30.33,NE,55,0.0,0.0,71,0.00,,,0.00,VWS V15.00,2013-12-14 03:08:00,
2013-12-13 22:13:00,35.9,27.1,30.33,NE,55,0.0,0.0,70,0.00,,,0.00,VWS V15.00,2013-12-14 03:13:00,
2013-12-13 22:18:00,35.8,27.3,30.32,NE,55,0.0,0.0,71,0.00,,,0.00,VWS V15.00,2013-12-14 03:18:00,
2013-12-13 22:23:00,35.8,27.3,30.33,NE,55,0.0,0.0,71,0.00,,,0.00,VWS V15.00,2013-12-14 03:23:00,
2013-12-13 22:28:00,35.8,27.3,30.32,NE,55,0.0,0.0,71,0.00,,,0.00,VWS V15.00,2013-12-14 03:28:00,
2013-12-13 22:30:00,35.8,27.3,30.32,NE,55,0.0,0.0,71,0.00,,,0.00,VWS V15.00,2013-12-14 03:30:00,
2013-12-13 22:33:00,35.7,27.6,30.32,NE,55,0.0,0.0,72,0.00,,,0.00,VWS V15.00,2013-12-14 03:33:00,
2013-12-13 22:38:00,35.7,28.2,30.32,NE,55,0.0,0.0,74,0.00,,,0.00,VWS V15.00,2013-12-14 03:38:00,
2013-12-13 22:43:00,35.7,28.2,30.31,NE,55,0.0,0.0,74,0.00,,,0.00,VWS V15.00,2013-12-14 03:43:00,
2013-12-13 22:48:00,35.7,27.6,30.31,NE,55,0.0,1.0,72,0.00,,,0.00,VWS V15.00,2013-12-14 03:48:00,
2013-12-13 22:53:00,35.8,28.0,30.31,NE,55,0.0,1.0,73,0.00,,,0.00,VWS V15.00,2013-12-14 03:53:00,
2013-12-13 22:58:00,35.7,27.9,30.30,NE,55,0.0,1.0,73,0.00,,,0.00,VWS V15.00,2013-12-14 03:58:00,
2013-12-13 23:00:00,35.7,27.6,30.30,NE,55,0.0,3.0,72,0.00,,,0.00,VWS V15.00,2013-12-14 04:00:00,
2013-12-13 23:03:00,35.9,27.1,30.30,NE,55,0.0,1.0,70,0.00,,,0.00,VWS V15.00,2013-12-14 04:03:00,
2013-12-13 23:08:00,36.1,28.0,30.30,NE,55,0.0,1.0,72,0.00,,,0.00,VWS V15.00,2013-12-14 04:08:00,
2013-12-13 23:13:00,36.1,28.0,30.31,NE,55,0.0,1.0,72,0.00,,,0.00,VWS V15.00,2013-12-14 04:13:00,
2013-12-13 23:18:00,36.2,28.1,30.31,NE,55,0.0,1.0,72,0.00,,,0.00,VWS V15.00,2013-12-14 04:18:00,
2013-12-13 23:23:00,36.2,27.7,30.31,NE,55,0.0,1.0,71,0.00,,,0.00,VWS V15.00,2013-12-14 04:23:00,
2013-12-13 23:28:00,36.3,27.5,30.31,NE,55,0.0,1.0,70,0.00,,,0.00,VWS V15.00,2013-12-14 04:28:00,
2013-12-13 23:30:00,36.3,27.5,30.31,NE,55,0.0,1.0,70,0.00,,,0.00,VWS V15.00,2013-12-14 04:30:00,
2013-12-13 23:33:00,36.4,26.9,30.31,NE,55,0.0,0.0,68,0.00,,,0.00,VWS V15.00,2013-12-14 04:33:00,
2013-12-13 23:38:00,36.4,26.5,30.31,NE,55,0.0,0.0,67,0.00,,,0.00,VWS V15.00,2013-12-14 04:38:00,
2013-12-13 23:43:00,36.6,27.4,30.31,NE,55,0.0,0.0,69,0.00,,,0.00,VWS V15.00,2013-12-14 04:43:00,
2013-12-13 23:48:00,36.8,28.0,30.30,NE,55,0.0,0.0,70,0.00,,,0.00,VWS V15.00,2013-12-14 04:48:00,
2013-12-13 23:53:00,36.8,28.0,30.30,NE,55,0.0,0.0,70,0.00,,,0.00,VWS V15.00,2013-12-14 04:53:00,
2013-12-13 23:58:00,37.1,26.1,30.30,NE,55,0.0,1.0,64,0.00,,,0.00,VWS V15.00,2013-12-14 04:58:00,